Location: Grand Rapids
(42.9630°N, 85.6680°W)
Time: 03:13:41
(UTC-04:00)

A-11 Canister half - Pass Details

Date: 07 June 2024
Orbit: 1524 x 1684 km, 47.3° (Epoch: 21 June)

Event Time Altitude Azimuth Distance (km) Brightness Sun altitude
Rises 16:49:24 0° 202° (SSW) 4,686 11.9 46.5°
Reaches altitude 10° 16:52:50 10° 193° (SSW) 3,694 11.4 45.9°
Maximum altitude 17:00:48 33° 133° (SE) 2,332 10.1 44.5°
Drops below altitude 10° 17:08:45 10° 74° (ENE) 3,701 10.7 43.0°
Sets 17:12:10 0° 65° (ENE) 4,698 11.1 42.4°
